SB KEPS @ AMSAT $ORB07039.O Orbital Elements 07039.OSCAR
HR AMSAT ORBITAL ELEMENTS FOR OSCAR SATELLITES FROM WA5QGD FORT WORTH,TX February 8, 2007 Send SUBSCRIBE KEPS/UNSUBSCRIBE KEPS to majordomo@amsat.org only BID: ORB07039.O TO ALL RADIO AMATEURS BT
Satellite: AO-07 Catalog number: 07530 Epoch time: 07038.69544922 Element set: 0800 Inclination: 101.5357 deg RA of node: 080.4275 deg Eccentricity: 0.0012014 Arg of perigee: 147.7165 deg Mean anomaly: 212.4643 deg Mean motion: 12.53572496 rev/day Decay rate: -2.8e-07 rev/day^2 Epoch rev: 47489 Checksum: 296
Satellite: AO-10 Catalog number: 14129 Epoch time: 07037.88685856 Element set: 0356 Inclination: 026.9440 deg RA of node: 292.7772 deg Eccentricity: 0.6051731 Arg of perigee: 356.0144 deg Mean anomaly: 000.9047 deg Mean motion: 02.05870898 rev/day Decay rate: -2.62e-06 rev/day^2 Epoch rev: 17788 Checksum: 329
Satellite: UO-11 Catalog number: 14781 Epoch time: 07038.95079542 Element set: 0297 Inclination: 098.1997 deg RA of node: 059.0901 deg Eccentricity: 0.0008176 Arg of perigee: 224.5298 deg Mean anomaly: 135.5270 deg Mean motion: 14.79518939 rev/day Decay rate: 4.7e-07 rev/day^2 Epoch rev: 23062 Checksum: 335
Satellite: RS-10/11 Catalog number: 18129 Epoch time: 07038.82494002 Element set: 0227 Inclination: 082.9275 deg RA of node: 153.8707 deg Eccentricity: 0.0012103 Arg of perigee: 151.4551 deg Mean anomaly: 208.7267 deg Mean motion: 13.72783896 rev/day Decay rate: 1.9e-07 rev/day^2 Epoch rev: 98348 Checksum: 314
Satellite: RS-15 Catalog number: 23439 Epoch time: 07038.93616724 Element set: 0035 Inclination: 064.8133 deg RA of node: 215.9452 deg Eccentricity: 0.0162864 Arg of perigee: 213.4447 deg Mean anomaly: 145.6105 deg Mean motion: 11.27551833 rev/day Decay rate: -3.9e-07 rev/day^2 Epoch rev: 49912 Checksum: 303
Satellite: FO-29 Catalog number: 24278 Epoch time: 07039.89589505 Element set: 430 Inclination: 098.5330 deg RA of node: 016.8722 deg Eccentricity: 0.0351290 Arg of perigee: 055.8677 deg Mean anomaly: 307.5261 deg Mean motion: 13.52927783 rev/day Decay rate: 1.18e-06 rev/day^2 Epoch rev: 51755 Checksum: 335
Satellite: SO-33 Catalog number: 25509 Epoch time: 07038.80770317 Element set: 859 Inclination: 031.4301 deg RA of node: 237.2254 deg Eccentricity: 0.0354756 Arg of perigee: 016.2057 deg Mean anomaly: 344.9593 deg Mean motion: 14.28146783 rev/day Decay rate: 5.2e-07 rev/day^2 Epoch rev: 43274 Checksum: 307
Satellite: AO-40 Catalog number: 26609 Epoch time: 07038.56279797 Element set: 0838 Inclination: 004.8341 deg RA of node: 177.1697 deg Eccentricity: 0.7995676 Arg of perigee: 270.1683 deg Mean anomaly: 009.3728 deg Mean motion: 01.25585934 rev/day Decay rate: -4.8e-07 rev/day^2 Epoch rev: 02881 Checksum: 364
Satellite: VO-52 Catalog number: 28650 Epoch time: 07038.41349014 Element set: 549 Inclination: 097.8460 deg RA of node: 111.9612 deg Eccentricity: 0.0026480 Arg of perigee: 318.0314 deg Mean anomaly: 041.8894 deg Mean motion: 14.81260035 rev/day Decay rate: -1.28e-06 rev/day^2 Epoch rev: 9520 Checksum: 287
/EX SB KEPS @ AMSAT $ORB07039.D Orbital Elements 07039.MICROS
HR AMSAT ORBITAL ELEMENTS FOR THE MICROSATS FROM WA5QGD FORT WORTH,TX February 8, 2007 Send SUBSCRIBE KEPS/UNSUBSCRIBE KEPS to majordomo@amsat.org only BID: ORB07039.D TO ALL RADIO AMATEURS BT
Satellite: AO-16 Catalog number: 20439 Epoch time: 07037.61586647 Element set: 0960 Inclination: 098.1908 deg RA of node: 039.3996 deg Eccentricity: 0.0010275 Arg of perigee: 212.8679 deg Mean anomaly: 147.1871 deg Mean motion: 14.31749298 rev/day Decay rate: -2.0e-08 rev/day^2 Epoch rev: 88986 Checksum: 355
Satellite: LO-19 Catalog number: 20442 Epoch time: 07038.93396860 Element set: 0891 Inclination: 098.1819 deg RA of node: 050.1299 deg Eccentricity: 0.0011374 Arg of perigee: 207.6914 deg Mean anomaly: 152.3648 deg Mean motion: 14.31990565 rev/day Decay rate: -6.5e-07 rev/day^2 Epoch rev: 89019 Checksum: 331
Satellite: AO-27 Catalog number: 22825 Epoch time: 07037.63090110 Element set: 0611 Inclination: 098.3154 deg RA of node: 013.3170 deg Eccentricity: 0.0007572 Arg of perigee: 290.6629 deg Mean anomaly: 069.3728 deg Mean motion: 14.29197945 rev/day Decay rate: -8.0e-07 rev/day^2 Epoch rev: 69684 Checksum: 312
Satellite: IO-26 Catalog number: 22826 Epoch time: 07038.54062031 Element set: 305 Inclination: 098.3074 deg RA of node: 015.3087 deg Eccentricity: 0.0008079 Arg of perigee: 285.3621 deg Mean anomaly: 074.6668 deg Mean motion: 14.29443932 rev/day Decay rate: -1.1e-07 rev/day^2 Epoch rev: 69705 Checksum: 300
Satellite: PO-28 Catalog number: 22829 Epoch time: 07037.58045312 Element set: 0586 Inclination: 098.2975 deg RA of node: 015.5770 deg Eccentricity: 0.0008830 Arg of perigee: 258.8972 deg Mean anomaly: 101.1204 deg Mean motion: 14.30142111 rev/day Decay rate: -8.0e-08 rev/day^2 Epoch rev: 69714 Checksum: 297
Satellite: GO-32 Catalog number: 25397 Epoch time: 07038.23088682 Element set: 0225 Inclination: 098.4343 deg RA of node: 091.0129 deg Eccentricity: 0.0000583 Arg of perigee: 205.6768 deg Mean anomaly: 154.4373 deg Mean motion: 14.23119978 rev/day Decay rate: -1.2e-07 rev/day^2 Epoch rev: 44567 Checksum: 311
Satellite: MO-46 Catalog number: 26548 Epoch time: 07038.92278194 Element set: 0719 Inclination: 064.5551 deg RA of node: 222.5520 deg Eccentricity: 0.0029952 Arg of perigee: 214.6751 deg Mean anomaly: 145.2400 deg Mean motion: 14.83095537 rev/day Decay rate: 6.3e-07 rev/day^2 Epoch rev: 34437 Checksum: 311
Satellite: NO-44 Catalog number: 26931 Epoch time: 07038.72053614 Element set: 516 Inclination: 067.0532 deg RA of node: 120.9879 deg Eccentricity: 0.0005745 Arg of perigee: 278.9256 deg Mean anomaly: 081.1198 deg Mean motion: 14.29473171 rev/day Decay rate: 2.36e-06 rev/day^2 Epoch rev: 27959 Checksum: 326
Satellite: SO-50 Catalog number: 27607 Epoch time: 07038.49848558 Element set: 0238 Inclination: 064.5592 deg RA of node: 118.7714 deg Eccentricity: 0.0039470 Arg of perigee: 043.6160 deg Mean anomaly: 316.8049 deg Mean motion: 14.71225932 rev/day Decay rate: 6.9e-07 rev/day^2 Epoch rev: 22204 Checksum: 315
Satellite: CO-55 Catalog number: 27844 Epoch time: 07038.71112393 Element set: 956 Inclination: 098.7205 deg RA of node: 048.7706 deg Eccentricity: 0.0010585 Arg of perigee: 102.7966 deg Mean anomaly: 257.4392 deg Mean motion: 14.20490156 rev/day Decay rate: 5.0e-07 rev/day^2 Epoch rev: 18709 Checksum: 318
Satellite: CO-57 Catalog number: 27848 Epoch time: 07038.57441610 Element set: 918 Inclination: 098.7193 deg RA of node: 047.8795 deg Eccentricity: 0.0010449 Arg of perigee: 106.2381 deg Mean anomaly: 253.9941 deg Mean motion: 14.20312138 rev/day Decay rate: 3.2e-07 rev/day^2 Epoch rev: 18705 Checksum: 316
Satellite: AO-51 Catalog number: 28375 Epoch time: 07038.19562441 Element set: 0743 Inclination: 098.1326 deg RA of node: 084.0962 deg Eccentricity: 0.0083077 Arg of perigee: 216.2793 deg Mean anomaly: 143.2743 deg Mean motion: 14.40554301 rev/day Decay rate: 1.5e-07 rev/day^2 Epoch rev: 13700 Checksum: 287
Satellite: CO-56 Catalog number: 28941 Epoch time: 07039.56937606 Element set: 346 Inclination: 098.1502 deg RA of node: 086.7583 deg Eccentricity: 0.0245342 Arg of perigee: 007.1507 deg Mean anomaly: 353.3371 deg Mean motion: 15.34446280 rev/day Decay rate: 2.3455e-04 rev/day^2 Epoch rev: 5367 Checksum: 321
Satellite: HO-59 Catalog number: 29484 Epoch time: 07039.52054995 Element set: 187 Inclination: 098.3073 deg RA of node: 070.6466 deg Eccentricity: 0.0244077 Arg of perigee: 004.5436 deg Mean anomaly: 355.8154 deg Mean motion: 15.41204522 rev/day Decay rate: 4.4888e-04 rev/day^2 Epoch rev: 2119 Checksum: 330
Satellite: NO-60 Catalog number: 29661 Epoch time: 07038.95606225 Element set: 0062 Inclination: 051.6443 deg RA of node: 048.9387 deg Eccentricity: 0.0009575 Arg of perigee: 193.4157 deg Mean anomaly: 166.6725 deg Mean motion: 15.87302396 rev/day Decay rate: 5.8888e-04 rev/day^2 Epoch rev: 00776 Checksum: 351
Satellite: NO-61 Catalog number: 29667 Epoch time: 07039.83962397 Element set: 48 Inclination: 051.6365 deg RA of node: 045.0642 deg Eccentricity: 0.0015456 Arg of perigee: 199.4206 deg Mean anomaly: 160.6219 deg Mean motion: 15.83561676 rev/day Decay rate: 1.7048e-04 rev/day^2 Epoch rev: 763 Checksum: 331
/EX SB KEPS @ AMSAT $ORB07039.W Orbital Elements 07039.WEATHER
HR AMSAT ORBITAL ELEMENTS FOR WEATHER SATELLITES FROM WA5QGD FORT WORTH,TX February 8, 2007 Send SUBSCRIBE KEPS/UNSUBSCRIBE KEPS to majordomo@amsat.org only BID: ORB07039.W TO ALL RADIO AMATEURS BT
Satellite: NOAA-10 Catalog number: 16969 Epoch time: 07038.61625296 Element set: 0537 Inclination: 098.7541 deg RA of node: 055.6694 deg Eccentricity: 0.0012202 Arg of perigee: 181.9513 deg Mean anomaly: 178.1617 deg Mean motion: 14.27316805 rev/day Decay rate: -2.3e-07 rev/day^2 Epoch rev: 06074 Checksum: 308
Satellite: NOAA-11 Catalog number: 19531 Epoch time: 07038.29175365 Element set: 0523 Inclination: 098.8150 deg RA of node: 129.0703 deg Eccentricity: 0.0012332 Arg of perigee: 043.1114 deg Mean anomaly: 317.1014 deg Mean motion: 14.14835271 rev/day Decay rate: 2.73e-06 rev/day^2 Epoch rev: 94778 Checksum: 275
Satellite: NOAA-12 Catalog number: 21263 Epoch time: 07038.52324784 Element set: 0017 Inclination: 098.7486 deg RA of node: 036.0115 deg Eccentricity: 0.0013624 Arg of perigee: 122.8651 deg Mean anomaly: 237.3856 deg Mean motion: 14.25521737 rev/day Decay rate: 4.3e-07 rev/day^2 Epoch rev: 81777 Checksum: 296
Satellite: MET-3/5 Catalog number: 21655 Epoch time: 07039.85975048 Element set: 223 Inclination: 082.5548 deg RA of node: 093.6186 deg Eccentricity: 0.0013646 Arg of perigee: 164.5212 deg Mean anomaly: 195.6330 deg Mean motion: 13.17010197 rev/day Decay rate: 5.1e-07 rev/day^2 Epoch rev: 74451 Checksum: 300
